#timestamp,LO_Frequency,Hit,StdDev 
1568934015.1,286047004.7,N
1568934035.9,286047005.5,N
1568934055.7,286047006.7,N
1568934075.6,286047007.2,N
1568934095.4,286047004.7,N
1568934115.2,286047005.8,N
1568934135.1,286047005.5,N
1568934136.0,286047005.5,N
1568934155.8,286047004.5,N
1568934175.6,286047007.1,N
1568934195.5,286047006.5,N
1568934215.3,286047006.3,N
1568934235.1,286047007.8,N
1568934255.9,286047007.7,N
1568934275.7,286047010.4,N
1568934295.6,286047012.2,N
1568934315.4,286047011.2,N
1568934335.2,286047012.9,N
1568934355.1,286047013.2,N
1568934356.0,286047013.2,N
1568934375.8,286047013.3,N
1568934395.6,286047012.9,N
1568934415.5,286047014.0,N
1568934435.3,286047012.4,N
1568934455.2,286047011.2,N
1568934475.9,286047009.4,N
1568934495.7,286047007.9,N
1568934515.6,286047004.7,N
1568934535.4,286047003.7,N
1568934555.2,286047002.8,N
1568934575.1,286047000.3,N
1568934576.0,286047000.3,N
1568934595.8,286046998.5,N
1568934615.7,286046997.3,N
1568934635.5,286046995.4,N
1568934655.3,286046996.2,N
1568934675.2,286046994.7,N
1568934695.0,286046994.2,N
1568934695.9,286046994.2,N
1568934715.7,286046992.6,N
1568934735.6,286046990.6,N
1568934755.4,286046991.0,N
1568934775.3,286046990.1,N
1568934795.1,286046992.2,N
1568934796.0,286046992.2,N
1568934815.8,286046993.4,N
1568934835.7,286046993.7,N
1568934855.5,286046995.8,N
1568934875.3,286046996.8,N
1568934895.2,286046998.6,N
1568934915.0,286046998.2,N
1568934915.9,286046998.2,N
1568934935.8,286046999.9,N
1568934955.6,286047002.8,N
1568934975.4,286047001.4,N
1568934995.3,286047007.1,N
1568935015.1,286047007.1,N
1568935035.8,286047006.3,N
1568935055.7,286047010.1,N
1568935075.5,286047008.2,N
1568935095.4,286047010.4,N
1568935115.2,286047012.0,N
1568935135.0,286047011.3,N
1568935135.9,286047011.3,N
1568935155.8,286047015.5,N
1568935175.6,286047013.0,N
1568935195.4,286047016.7,N
1568935215.3,286047017.1,N
1568935235.1,286047015.9,N
1568935255.9,286047015.8,N
1568935275.7,286047016.2,N
1568935295.5,286047019.5,N
1568935315.4,286047020.6,N
1568935335.2,286047020.5,N
1568935355.1,286047025.1,N
1568935356.0,286047025.1,N
1568935375.8,286047023.2,N
1568935395.6,286047023.5,N
1568935415.5,286047021.0,N
1568935435.3,286047021.1,N
1568935455.1,286047019.4,N
1568935475.9,286047019.3,N
1568935495.7,286047022.0,Y
1568935515.6,286047004.7,P
1568935535.4,286047007.6,N
1568935555.2,286047006.7,N
1568935575.1,286047004.9,N
1568935576.0,286047004.9,N
1568935595.8,286047005.4,N
1568935615.7,286047004.1,N
1568935635.5,286047004.4,N
1568935655.3,286047002.3,N
1568935675.2,286047001.0,N
1568935695.0,286046998.4,N
1568935695.9,286046998.4,N
1568935715.7,286047001.2,N
1568935735.6,286046996.5,N
1568935755.4,286046997.0,N
1568935775.3,286046997.8,N
1568935795.1,286046995.1,N
1568935796.0,286046995.1,N
1568935815.8,286046997.7,N
1568935835.7,286046997.9,N
1568935855.5,286046995.9,N
1568935875.4,286046993.6,N
1568935895.2,286046994.0,N
1568935915.0,286046994.4,N
1568935915.9,286046994.4,N
1568935935.8,286046991.5,N
1568935955.6,286046989.9,N
1568935975.4,286046985.8,N
1568935995.3,286046984.9,N
1568936015.1,286046985.2,N
1568936035.9,286046984.6,N
1568936055.7,286046983.9,N
1568936075.5,286046984.2,N
1568936095.4,286046982.2,N
1568936115.2,286046985.0,N
1568936135.0,286046982.4,N
1568936135.9,286046982.4,N
1568936155.8,286046982.2,N
1568936175.6,286046981.8,N
1568936195.5,286046979.9,Y
1568936215.3,286046985.7,P
1568936235.1,286046986.2,P
1568936255.9,286046982.6,P
1568936275.7,286046982.2,Y
1568936295.6,286046993.7,P
1568936315.4,286046993.6,N
1568936335.2,286046994.6,N
1568936355.1,286046993.5,N
1568936356.0,286046993.5,N
1568936375.8,286046991.8,N
1568936395.7,286046992.2,Y
1568936415.5,286047000.7,P
1568936435.3,286046999.0,N
1568936455.2,286046997.2,N
1568936475.0,286046999.5,N
1568936475.9,286046999.5,N
1568936495.7,286046997.8,N
1568936515.6,286046995.7,N
1568936535.4,286046994.2,N
1568936555.3,286046992.9,N
1568936575.1,286046992.6,N
1568936595.8,286046992.6,N
1568936615.7,286046991.1,N
1568936635.5,286046989.1,Y
1568936655.4,286046992.6,P
1568936675.2,286046990.4,P
1568936695.0,286046990.9,P
1568936695.9,286046990.9,Y
1568936715.8,286046995.0,P
1568936735.6,286046993.8,P
1568936755.4,286046996.3,P
1568936775.3,286046993.6,Y
1568936795.1,286046998.3,P
1568936815.9,286047001.0,N
1568936835.7,286046996.9,N
1568936855.5,286046999.1,N
1568936875.4,286046997.6,N
1568936895.2,286046997.4,N
1568936915.0,286046997.2,N
1568936915.9,286046997.2,N
1568936935.8,286046998.9,N
1568936955.6,286046997.0,N
1568936975.5,286046995.5,N
1568936995.3,286046996.5,N
1568937015.1,286046998.6,N
1568937035.9,286047001.8,N
1568937055.7,286047001.4,N
1568937075.5,286047004.2,N
1568937095.4,286047006.0,N
1568937115.2,286047006.0,N
1568937135.0,286047003.3,N
1568937136.0,286047003.3,N
1568937155.8,286047003.1,N
1568937175.6,286047003.8,N
1568937195.5,286047004.4,N
1568937215.3,286047002.5,N
1568937235.1,286047002.1,N
1568937255.9,286047001.7,N
1568937275.7,286047002.4,N
1568937295.5,286047000.2,N
1568937315.4,286046998.1,N
1568937335.2,286047001.2,N
1568937355.1,286047000.5,N
1568937356.0,286047000.5,N
1568937375.8,286046999.8,N
1568937395.6,286046998.6,N
1568937415.5,286046998.3,N
1568937435.3,286046996.9,N
1568937455.2,286046999.4,N
1568937475.9,286046999.4,N
1568937495.7,286046997.8,N
1568937515.6,286046997.5,N
1568937535.4,286046996.7,N
1568937555.2,286046995.2,N
1568937575.1,286046994.9,N
1568937576.0,286046994.9,N
1568937595.8,286046997.8,N
